This demonstration page uses our WeatherBlox Daily Observations layout. Learn more.

Left ArrowRight Arrow

Hourly Observations for September 23, 2022

Temp ( °F °C ) Dew Point ( °F °C ) Humidity (%) Winds ( mph kmh ) Pressure ( in mb ) Visibility ( mi km ) Precip ( " mm )
12:53 am 00:53 Clear 50 10 44 6.7 80 80 NNW 5 7 30.18 1022 10 16 0.00 0.00
1:53 am 01:53 Clear 49 9.4 44 6.7 83 83 N 5 7 30.19 1022 10 16 0.00 0.00
2:53 am 02:53 Clear 47 8.3 44 6.7 90 90 Calm 30.19 1022 10 16 0.00 0.00
3:53 am 03:53 Clear 46 7.8 44 6.7 93 93 Calm 30.19 1022 10 16 0.00 0.00
4:53 am 04:53 Clear 45 7.2 43 6.1 93 93 Calm 30.22 1023 10 16 0.00 0.00
5:53 am 05:53 Clear 44 6.7 42 5.6 93 93 NNW 3 6 30.23 1024 10 16 0.00 0.00
6:53 am 06:53 Clear 45 7.2 41 5 86 86 N 5 7 30.24 1024 10 16 0.00 0.00
7:53 am 07:53 Sunny 44 6.7 42 5.6 93 93 Calm 30.27 1025 10 16 0.00 0.00
8:53 am 08:53 Sunny 49 9.4 43 6.1 80 80 VRB 3 6 30.28 1025 10 16 0.00 0.00
9:53 am 09:53 Sunny 54 12.2 43 6.1 66 66 NNE 3 6 30.29 1026 10 16 0.00 0.00
10:53 am 10:53 Sunny 57 13.9 44 6.7 62 62 VRB 3 6 30.29 1026 10 16 0.00 0.00
11:53 am 11:53 Sunny 59 15 44 6.7 58 58 Calm 30.28 1025 10 16 0.00 0.00
12:53 pm 12:53 Sunny 61 16.1 43 6.1 51 51 VRB 3 6 30.27 1025 10 16 0.00 0.00
1:53 pm 13:53 Sunny 64 17.8 39 3.9 40 40 Calm 30.25 1024 10 16 0.00 0.00
2:53 pm 14:53 Sunny 65 18.3 37 2.8 36 36 Calm 30.21 1023 10 16 0.00 0.00
3:53 pm 15:53 Sunny 67 19.4 40 4.4 37 37 Calm 30.19 1022 10 16 0.00 0.00
4:53 pm 16:53 Sunny 66 18.9 44 6.7 45 45 Calm 30.19 1022 10 16 0.00 0.00
5:53 pm 17:53 Sunny 65 18.3 45 7.2 48 48 Calm 30.18 1022 10 16 0.00 0.00
6:53 pm 18:53 Sunny 59 15 51 10.6 75 75 ENE 3 6 30.16 1021 10 16 0.00 0.00
7:53 pm 19:53 Clear 57 13.9 50 10 77 77 Calm 30.16 1021 10 16 0.00 0.00
8:53 pm 20:53 Clear 57 13.9 50 10 77 77 Calm 30.14 1021 10 16 0.00 0.00
9:53 pm 21:53 Mostly Clear 56 13.3 51 10.6 84 84 Calm 30.14 1021 10 16 0.00 0.00
10:53 pm 22:53 Cloudy 57 13.9 51 10.6 80 80 Calm 30.14 1021 10 16 0.00 0.00
11:53 pm 23:53 Cloudy 56 13.3 52 11.1 87 87 Calm 30.13 1020 10 16 0.01 0.13

Powered by AerisWeather